[[{"header":{"parameterUnit":"m.s-1","parameterCategory":1,"la1":30.2991,"la2":30.254,"lo1":-89.0895,"lo2":-89.0444,"dy":0.0017,"dx":0.0017,"nx":28,"ny":28,"refTime":"2024-02-26T09:00:00:Z","depth":0,"parameterNumber":2,"parameterNumberName":"U-component_of_WINDS"},"data":[0,0,0,0,0,0,0,0,0,0,0,0,0,0,0,0,0,0,0,0,0,0,0,0,0,0,0,0,0,0,0,0,0,0,0,0,0,0,0,0,0,0,0,0,0,0,0,0,0,0,0,0,0,0,0,0,0,0,-0.9653,-0.9653,0,-0.9652,-0.9652,-0.9652,-0.9638,-0.9638,-0.9638,-0.9637,-0.9638,-0.9638,-0.9638,0,0,0,0,0,0,0,0,0,0,0,0,0,-0.9643,-0.9644,-0.9653,-0.9653,-0.9653,-0.9652,-0.9652,-0.9652,-0.9638,-0.9638,-0.9638,-0.9637,-0.9638,-0.9638,-0.9638,0,0,0,0,0,0,0,0,0,0,0,0,0,-0.9646,-0.9644,-0.9653,-0.9646,-0.9645,-0.9652,-0.9652,-0.9652,-0.9639,-0.9638,-0.9637,-0.9637,-0.9637,-0.9638,-0.9638,-0.9652,0,0,-0.964,-0.964,0,0,0,0,0,0,0,0,-0.9645,-0.9646,-0.9647,-0.9646,-0.9645,-0.9645,-0.9649,-0.9652,-0.9639,-0.9641,-0.9637,-0.9637,-0.9641,-0.9641,-0.9642,-0.9652,-0.9652,-0.964,-0.964,-0.9641,-0.9641,0,0,0,0,0,0,0,-0.9645,-0.9646,-0.9652,-0.9647,-0.9646,-0.9643,-0.9643,-0.9649,-0.9644,-0.9641,-0.964,-0.964,-0.964,-0.9641,-0.9642,-0.9652,-0.964,-0.9641,-0.9641,-0.9641,-0.9675,-0.9675,0,0,0,0,0,0,-0.9646,-0.9646,-0.9652,-0.9652,-0.9644,-0.9644,-0.9643,-0.9646,-0.9644,-0.9643,-0.964,-0.9639,-0.9641,-0.9641,-0.9642,-0.9658,-0.9641,-0.9641,-0.9641,-0.9674,-0.9675,-0.9675,0,0,0,0,0,0,-0.9646,-0.9647,-0.9652,-0.9649,-0.9649,-0.9644,-0.9647,-0.9646,-0.9647,-0.9643,-0.9642,-0.9643,-0.964,-0.9641,-0.965,-0.9658,-0.9641,-0.9642,-0.9673,-0.9674,-0.9675,-0.969,0,0,0,0,0,0,-0.9646,-0.9647,-0.9651,-0.9649,-0.965,-0.966,-0.9647,-0.9646,-0.9648,-0.9646,-0.9645,-0.9644,-0.964,-0.9649,-0.965,-0.9658,-0.9642,-0.9673,-0.9674,-0.9675,-0.9689,-0.9691,-0.9693,0,0,0,0,0,-0.9645,-0.9656,-0.9652,-0.9653,-0.9655,-0.966,-0.9661,-0.9655,-0.9648,-0.9653,-0.9651,-0.9644,-0.9657,-0.965,-0.9651,-0.9659,-0.9672,-0.9673,-0.9675,-0.9688,-0.9691,-0.9693,0,0,0,0,0,0,-0.9659,-0.9655,-0.9651,-0.9661,-0.9661,-0.9658,-0.9664,-0.9659,-0.9661,-0.966,-0.9653,-0.9653,-0.9663,-0.9662,-0.9655,-0.9673,-0.9663,-0.9665,-0.9673,-0.9676,-0.9678,-0.9677,-0.9643,0,0,0,0,0,-0.9664,-0.9668,-0.9664,-0.9673,-0.9674,-0.9669,-0.9671,-0.9667,-0.9667,-0.9667,-0.9665,-0.9666,-0.967,-0.9673,-0.9677,-0.9689,-0.9689,-0.9695,-0.9697,-0.9699,-0.9701,-0.9707,-0.971,-0.968,-0.968,-0.968,0,0,-0.9672,-0.9671,-0.9674,-0.9676,-0.9676,-0.9681,-0.9669,-0.9675,-0.9678,-0.9668,-0.9676,-0.9675,-0.9676,-0.9686,-0.9691,-0.9686,-0.9709,-0.9701,-0.9703,-0.9703,-0.9709,-0.9712,-0.9714,-0.9681,-0.968,-0.968,0,0,-0.9691,-0.969,-0.9697,-0.9697,-0.9697,-0.9694,-0.9696,-0.9694,-0.9693,-0.9701,-0.9694,-0.9698,-0.9705,-0.9706,-0.9707,-0.9727,-0.9721,-0.9728,-0.974,-0.9747,-0.9749,-0.9751,-0.9758,-0.9761,-0.973,-0.973,-0.973,0,-0.9701,-0.9708,-0.9702,-0.9708,-0.9709,-0.97,-0.9708,-0.9709,-0.971,-0.9711,-0.9706,-0.9715,-0.9715,-0.9725,-0.973,-0.9732,-0.9734,-0.9728,-0.9749,-0.9751,-0.9753,-0.976,-0.9762,-0.9731,-0.9731,-0.9731,-0.973,0,-0.9721,-0.9726,-0.9732,-0.9733,-0.9736,-0.9742,-0.9738,-0.9741,-0.9737,-0.9735,-0.9744,-0.9743,-0.9746,-0.9749,-0.9745,-0.9759,-0.9756,-0.975,-0.974,-0.9757,-0.9763,-0.9765,-0.9732,-0.9732,-0.9731,-0.9731,0,0,-0.9747,-0.9745,-0.9748,-0.9748,-0.9748,-0.9752,-0.9759,-0.9762,-0.9764,-0.9766,-0.9772,-0.9778,-0.9773,-0.9774,-0.9771,-0.9777,-0.9792,-0.977,-0.977,-0.9774,-0.9808,-0.9812,-0.9815,-0.9789,-0.9789,-0.9789,-0.9808,0,-0.9765,-0.9776,-0.9771,-0.9782,-0.9787,-0.9779,-0.9785,-0.9786,-0.9784,-0.9788,-0.9787,-0.9792,-0.9784,-0.9785,-0.9791,-0.9789,-0.9799,-0.9788,-0.9794,-0.9794,-0.9793,-0.9818,-0.9822,-0.984,-0.981,-0.9811,-0.9811,0,-0.9786,-0.9788,-0.98,-0.9799,-0.9801,-0.9806,-0.9809,-0.9813,-0.9814,-0.9812,-0.9815,-0.981,-0.9817,-0.9808,-0.9818,-0.9811,-0.9813,-0.9813,-0.9814,-0.9813,-0.9803,-0.9818,-0.9845,-0.9847,-0.9814,-0.9814,-0.9814,0,-0.9803,-0.9809,-0.9817,-0.9818,-0.9817,-0.9821,-0.9821,-0.9822,-0.9824,-0.9827,-0.9828,-0.9832,-0.9834,-0.9837,-0.9834,-0.9828,-0.9845,-0.9835,-0.9844,-0.9844,-0.9847,-0.9847,-0.9874,-0.985,-0.985,-0.985,-0.9849,0,-0.9823,-0.983,-0.9825,-0.983,-0.9838,-0.9833,-0.9842,-0.9841,-0.9842,-0.9847,-0.9841,-0.9846,-0.9841,-0.9846,-0.9844,-0.9852,-0.9854,-0.9853,-0.9852,-0.9853,-0.9853,-0.9854,-0.9852,-0.985,-0.985,-0.985,-0.985,0,-0.9843,-0.984,-0.9848,-0.9847,-0.9847,-0.9853,-0.9852,-0.9857,-0.9855,-0.9862,-0.9863,-0.986,-0.9866,-0.9863,-0.9869,-0.9867,-0.9878,-0.9876,-0.9878,-0.9877,-0.9885,-0.9884,-0.9914,-0.9917,-0.9891,-0.9892,-0.9892,0,-0.9855,-0.9861,-0.986,-0.9863,-0.9863,-0.9868,-0.987,-0.9866,-0.9869,-0.9871,-0.9875,-0.988,-0.9884,-0.9893,-0.9892,-0.9896,-0.9894,-0.9904,-0.9894,-0.9895,-0.9893,-0.9893,-0.9893,-0.9905,-0.9906,-0.9906,-0.9906,0,-0.9877,-0.9876,-0.9879,-0.9882,-0.9885,-0.9887,-0.9889,-0.9892,-0.9888,-0.9891,-0.9896,-0.9899,-0.9905,-0.991,-0.9914,-0.9914,-0.991,-0.9909,-0.9911,-0.9912,-0.9912,-0.9912,-0.9882,-0.9908,-0.9908,-0.9908,-0.9908,-0.9908,-0.9894,-0.9898,-0.9899,-0.9903,-0.9904,-0.9906,-0.991,-0.9909,-0.9913,-0.9917,-0.9915,-0.9921,-0.9923,-0.9927,-0.9929,-0.9934,-0.993,-0.9933,-0.9934,-0.9934,-0.9935,-0.9912,-0.9935,-0.9935,-0.9935,-0.9935,-0.9934,0,-0.9915,-0.9915,-0.9919,-0.9922,-0.9925,-0.992,-0.9922,-0.9926,-0.9931,-0.9933,-0.9936,-0.9942,-0.9947,-0.9947,-0.9952,-0.9956,-0.9954,-0.9957,-0.9957,-0.9957,-0.9939,-0.9936,-0.9959,-0.9959,-0.9959,-0.9959,-0.9959,-0.9959,-0.9927,-0.9934,-0.9933,-0.9941,-0.9941,-0.9947,-0.9948,-0.995,-0.9952,-0.9959,-0.9963,-0.9962,-0.9963,-0.9968,-0.9973,-0.9973,-0.9974,-0.9978,-0.9977,-0.9961,-0.9958,-0.9956,-0.9953,-0.9979,-0.9979,-0.9995,-0.9995,-0.9995]},{"header":{"parameterUnit":"m.s-1","parameterCategory":1,"la1":30.2991,"la2":30.254,"lo1":-89.0895,"lo2":-89.0444,"dy":0.0017,"dx":0.0017,"nx":28,"ny":28,"refTime":"2024-02-26T09:00:00:Z","depth":0,"parameterNumber":3,"parameterNumberName":"V-component_of_WINDS"},"data":[0,0,0,0,0,0,0,0,0,0,0,0,0,0,0,0,0,0,0,0,0,0,0,0,0,0,0,0,0,0,0,0,0,0,0,0,0,0,0,0,0,0,0,0,0,0,0,0,0,0,0,0,0,0,0,0,0,0,1.8324,1.8324,0,1.83,1.83,1.8299,1.8216,1.8214,1.8212,1.821,1.8189,1.819,1.8191,0,0,0,0,0,0,0,0,0,0,0,0,0,1.83,1.8301,1.8324,1.8324,1.8323,1.83,1.83,1.8299,1.8216,1.8214,1.8212,1.8209,1.8188,1.819,1.8191,0,0,0,0,0,0,0,0,0,0,0,0,0,1.8297,1.8302,1.8324,1.8279,1.8275,1.83,1.83,1.8299,1.8217,1.8214,1.8211,1.8208,1.8188,1.8189,1.8191,1.8259,0,0,1.8197,1.8197,0,0,0,0,0,0,0,0,1.8297,1.8298,1.8286,1.8282,1.8277,1.8258,1.8283,1.8286,1.8217,1.8239,1.821,1.8207,1.8214,1.8214,1.8215,1.8258,1.8257,1.8197,1.8198,1.8199,1.8199,0,0,0,0,0,0,0,1.8298,1.8299,1.8314,1.8286,1.8281,1.8261,1.8257,1.8283,1.8243,1.8237,1.8231,1.8229,1.8211,1.8214,1.8214,1.8257,1.8197,1.8198,1.8199,1.82,1.8354,1.8357,0,0,0,0,0,0,1.8304,1.8299,1.8315,1.8314,1.828,1.8264,1.826,1.8267,1.8242,1.8236,1.8231,1.8225,1.8212,1.8212,1.8213,1.8291,1.8199,1.82,1.8201,1.8351,1.8355,1.8358,0,0,0,0,0,0,1.8304,1.8306,1.8316,1.8305,1.8305,1.8267,1.8276,1.8268,1.827,1.8238,1.8231,1.8241,1.821,1.8211,1.8248,1.8289,1.8201,1.8203,1.8348,1.8352,1.8356,1.8447,0,0,0,0,0,0,1.8303,1.8307,1.8331,1.8306,1.8306,1.8351,1.8279,1.827,1.8274,1.8265,1.8245,1.8239,1.8208,1.8246,1.825,1.829,1.8204,1.8344,1.835,1.8355,1.844,1.8454,1.8466,0,0,0,0,0,1.8303,1.8358,1.8333,1.8335,1.8335,1.8353,1.8353,1.8315,1.8277,1.8302,1.8281,1.824,1.8284,1.825,1.8254,1.8295,1.8341,1.8348,1.8355,1.8435,1.8452,1.8466,0,0,0,0,0,0,1.839,1.8354,1.8326,1.8374,1.8368,1.8339,1.8369,1.8334,1.8339,1.8331,1.8284,1.828,1.8324,1.8313,1.8277,1.836,1.8306,1.8314,1.8365,1.8381,1.8394,1.8396,1.8205,0,0,0,0,0,1.8415,1.8432,1.84,1.8446,1.8444,1.8408,1.8414,1.8385,1.8376,1.8373,1.8355,1.8349,1.8361,1.8371,1.838,1.8439,1.8433,1.8469,1.8482,1.8493,1.85,1.8531,1.8546,1.838,1.838,1.838,0,0,1.8466,1.8449,1.8462,1.8463,1.8454,1.8473,1.8406,1.8429,1.8443,1.8377,1.8411,1.8398,1.8388,1.8436,1.8457,1.8429,1.8545,1.8501,1.851,1.8512,1.8539,1.8555,1.8569,1.8385,1.8384,1.8383,0,0,1.857,1.8558,1.8595,1.8588,1.8576,1.8551,1.856,1.8538,1.8526,1.8559,1.851,1.8527,1.8549,1.8544,1.8545,1.8648,1.861,1.8652,1.872,1.875,1.8763,1.8775,1.8812,1.8825,1.866,1.866,1.866,0,1.8636,1.8662,1.8619,1.8646,1.8648,1.8588,1.8626,1.8621,1.8613,1.8617,1.8585,1.8612,1.8601,1.8648,1.8673,1.8675,1.8685,1.8654,1.8765,1.8776,1.8786,1.882,1.8834,1.8665,1.8665,1.8664,1.8664,0,1.8744,1.8763,1.8795,1.8787,1.8793,1.8825,1.8788,1.8799,1.877,1.875,1.8785,1.877,1.8776,1.8784,1.8757,1.8828,1.881,1.8773,1.8717,1.8807,1.8839,1.8852,1.8673,1.8671,1.8669,1.8668,0,0,1.8901,1.887,1.8883,1.8879,1.8861,1.8875,1.8905,1.891,1.8921,1.8917,1.8942,1.8962,1.8927,1.8928,1.8899,1.8926,1.9009,1.8884,1.8884,1.8908,1.9086,1.9115,1.9131,1.8984,1.8986,1.8988,1.9087,0,1.9,1.9048,1.9011,1.9066,1.9084,1.9028,1.9054,1.9047,1.9029,1.9042,1.9022,1.9037,1.8989,1.8989,1.9013,1.8994,1.9044,1.8986,1.9007,1.9008,1.9011,1.9148,1.9178,1.9272,1.9099,1.9102,1.9103,0,1.9121,1.9123,1.918,1.9158,1.9164,1.9188,1.919,1.9203,1.9194,1.9179,1.918,1.9144,1.9173,1.9119,1.9158,1.912,1.9126,1.9118,1.9121,1.9121,1.9061,1.9152,1.9301,1.9316,1.9122,1.9121,1.9119,0,1.9231,1.9247,1.9283,1.9282,1.9258,1.9276,1.9267,1.9255,1.9261,1.9263,1.9266,1.9272,1.9275,1.9281,1.9248,1.9211,1.9292,1.9235,1.9281,1.9282,1.93,1.93,1.9453,1.9305,1.9304,1.9304,1.9304,0,1.9345,1.9382,1.9332,1.9355,1.9395,1.9352,1.9394,1.9379,1.9369,1.9388,1.9341,1.936,1.9315,1.933,1.9305,1.9342,1.9344,1.9333,1.9326,1.9337,1.9339,1.9341,1.9333,1.9308,1.9307,1.9306,1.9306,0,1.9474,1.9442,1.9478,1.9452,1.9447,1.9478,1.9456,1.9476,1.9455,1.948,1.9483,1.945,1.9466,1.9433,1.9444,1.9427,1.948,1.9462,1.9483,1.9478,1.9526,1.9522,1.9686,1.9705,1.9545,1.9546,1.9548,0,1.9549,1.9576,1.9553,1.9562,1.9556,1.9571,1.9576,1.9536,1.9544,1.9535,1.9557,1.9568,1.9575,1.9602,1.9579,1.9588,1.957,1.9627,1.9571,1.9582,1.9571,1.957,1.9573,1.9639,1.9641,1.9642,1.9644,0,1.9685,1.9668,1.9677,1.9681,1.9688,1.969,1.9687,1.9698,1.9655,1.9666,1.968,1.9686,1.9697,1.9709,1.9712,1.9704,1.9667,1.9661,1.9673,1.9685,1.9696,1.9691,1.9514,1.9658,1.9656,1.9655,1.9655,1.9654,1.979,1.9811,1.9799,1.9811,1.9805,1.9804,1.9822,1.9802,1.9814,1.9819,1.9794,1.9815,1.9805,1.9806,1.9802,1.9817,1.9792,1.9808,1.9812,1.9817,1.9825,1.9693,1.9818,1.9817,1.9817,1.9817,1.9816,0,1.9924,1.9913,1.9924,1.9923,1.9932,1.9896,1.9892,1.9903,1.9921,1.9915,1.9922,1.994,1.9951,1.993,1.9938,1.9955,1.9938,1.9958,1.9957,1.9956,1.9847,1.9836,1.9972,1.9972,1.9972,1.9972,1.9972,1.9971,1.9995,2.003,2.0011,2.0043,2.0032,2.0051,2.0052,2.0051,2.0046,2.0067,2.0076,2.0062,2.005,2.0057,2.0067,2.006,2.0066,2.0092,2.008,1.9978,1.9963,1.9949,1.9939,2.0093,2.0093,2.0187,2.0188,2.0188]}]]